SWA2966 KLGB-KRNO

Flight info

Callsign SWA2966
Flight time 1h 5m
Altitude 38000
Route TOPMM5 CSTRO FMG
Aircraft B738/M-SDE2E3FGHIRWXY/LB1

Departure

Time 2026-04-24 02:45
Airport Long Beach International Airport (KLGB)

Arrival

Time 2026-04-24 03:51
Airport Reno Tahoe International Airport (KRNO)
Time Latitude Longitude Altitude Speed Heading
2026-04-24 02:25 33.81739 -118.14610 43 ft 0 kts 90°
2026-04-24 02:38 33.81739 -118.14629 43 ft 3 kts 90°
2026-04-24 02:38 33.81739 -118.14661 43 ft 3 kts 90°
2026-04-24 02:38 33.81739 -118.14666 43 ft 0 kts 90°
2026-04-24 02:39 33.81739 -118.14665 43 ft 1 kts 89°
2026-04-24 02:39 33.81752 -118.14657 43 ft 2 kts 328°
2026-04-24 02:40 33.81756 -118.14679 43 ft 2 kts 256°
2026-04-24 02:40 33.81747 -118.14693 43 ft 4 kts 209°
2026-04-24 02:40 33.81682 -118.14701 43 ft 14 kts 182°
2026-04-24 02:40 33.81556 -118.14677 41 ft 22 kts 144°
2026-04-24 02:41 33.81446 -118.14553 39 ft 19 kts 133°
2026-04-24 02:41 33.81356 -118.14442 37 ft 17 kts 135°
2026-04-24 02:41 33.81269 -118.14339 37 ft 20 kts 136°
2026-04-24 02:41 33.81152 -118.14202 34 ft 24 kts 134°
2026-04-24 02:42 33.81039 -118.14065 34 ft 20 kts 134°
2026-04-24 02:42 33.80948 -118.13952 34 ft 16 kts 134°
2026-04-24 02:42 33.80867 -118.13853 33 ft 19 kts 135°
2026-04-24 02:42 33.80780 -118.13760 32 ft 10 kts 165°
2026-04-24 02:43 33.80766 -118.13761 32 ft 0 kts 194°
2026-04-24 02:44 33.80765 -118.13761 32 ft 1 kts 195°
2026-04-24 02:44 33.80720 -118.13795 33 ft 14 kts 226°
2026-04-24 02:45 33.80747 -118.13889 34 ft 13 kts 316°
2026-04-24 02:45 33.80957 -118.14143 34 ft 86 kts 315°
2026-04-24 02:45 33.81567 -118.14883 49 ft 161 kts 314°
2026-04-24 02:45 33.82452 -118.15907 700 ft 180 kts 313°
2026-04-24 02:46 33.83334 -118.17007 1532 ft 196 kts 312°
2026-04-24 02:46 33.84287 -118.18265 2245 ft 216 kts 311°
2026-04-24 02:46 33.85321 -118.19683 2897 ft 239 kts 311°
2026-04-24 02:46 33.86260 -118.21370 2972 ft 247 kts 289°
2026-04-24 02:47 33.86460 -118.23505 3001 ft 260 kts 270°
2026-04-24 02:47 33.86506 -118.25683 2995 ft 260 kts 277°
2026-04-24 02:47 33.86801 -118.27801 2993 ft 259 kts 282°
2026-04-24 02:47 33.87192 -118.29927 3057 ft 265 kts 284°
2026-04-24 02:48 33.87617 -118.32150 3882 ft 287 kts 284°
2026-04-24 02:48 33.88070 -118.34514 5218 ft 299 kts 284°
2026-04-24 02:48 33.88535 -118.36929 6681 ft 303 kts 284°
2026-04-24 02:48 33.89001 -118.39252 8428 ft 286 kts 284°
2026-04-24 02:49 33.89505 -118.41486 9835 ft 279 kts 290°
2026-04-24 02:49 33.90535 -118.43450 10728 ft 291 kts 315°
2026-04-24 02:49 33.92323 -118.44734 11293 ft 318 kts 335°
2026-04-24 02:49 33.94385 -118.45798 12083 ft 330 kts 330°
2026-04-24 02:50 33.96454 -118.47078 13060 ft 336 kts 328°
2026-04-24 02:50 33.98496 -118.48391 14068 ft 340 kts 328°
2026-04-24 02:50 34.00628 -118.49751 14862 ft 351 kts 328°
2026-04-24 02:50 34.02811 -118.51135 14981 ft 354 kts 329°
2026-04-24 02:51 34.04950 -118.52467 14987 ft 344 kts 329°
2026-04-24 02:51 34.07090 -118.53812 14988 ft 344 kts 329°
2026-04-24 02:51 34.09251 -118.55080 15385 ft 356 kts 333°
2026-04-24 02:51 34.11571 -118.56093 16505 ft 358 kts 338°
2026-04-24 02:52 34.13965 -118.56989 17373 ft 365 kts 339°
2026-04-24 02:52 34.16401 -118.57882 18283 ft 369 kts 339°
2026-04-24 02:52 34.18877 -118.58791 19143 ft 374 kts 339°
2026-04-24 02:52 34.21391 -118.59705 19980 ft 379 kts 339°
2026-04-24 02:53 34.23912 -118.60616 20838 ft 383 kts 339°
2026-04-24 02:53 34.26458 -118.61537 21605 ft 388 kts 339°
2026-04-24 02:53 34.29092 -118.62489 22370 ft 394 kts 339°
2026-04-24 02:53 34.31714 -118.63435 23150 ft 397 kts 339°
2026-04-24 02:54 34.34355 -118.64389 23903 ft 402 kts 339°
2026-04-24 02:54 34.37033 -118.65351 24673 ft 406 kts 338°
2026-04-24 02:54 34.39746 -118.66326 25463 ft 409 kts 338°
2026-04-24 02:54 34.42530 -118.67240 26127 ft 417 kts 342°
2026-04-24 02:55 34.45387 -118.67873 26850 ft 423 kts 345°
2026-04-24 02:55 34.48294 -118.68436 27606 ft 425 kts 345°
2026-04-24 02:55 34.51268 -118.69020 28232 ft 430 kts 345°
2026-04-24 02:55 34.54220 -118.69604 28931 ft 433 kts 345°
2026-04-24 02:56 34.57200 -118.70187 29507 ft 438 kts 345°
2026-04-24 02:56 34.60187 -118.70775 30272 ft 438 kts 344°
2026-04-24 02:56 34.63245 -118.71378 30897 ft 442 kts 344°
2026-04-24 02:56 34.66243 -118.71968 31755 ft 439 kts 343°
2026-04-24 02:57 34.69212 -118.72787 32392 ft 435 kts 337°
2026-04-24 02:57 34.72065 -118.73864 33221 ft 429 kts 334°
2026-04-24 02:57 34.74796 -118.75236 33821 ft 423 kts 326°
2026-04-24 02:57 34.77377 -118.76915 34497 ft 418 kts 324°
2026-04-24 02:58 34.79906 -118.78628 35048 ft 416 kts 323°
2026-04-24 02:58 34.82423 -118.80325 35575 ft 415 kts 323°
2026-04-24 02:58 34.84911 -118.82003 36158 ft 412 kts 323°
2026-04-24 02:58 34.87408 -118.83703 36671 ft 413 kts 323°
2026-04-24 02:59 34.89903 -118.85413 37166 ft 412 kts 323°
2026-04-24 02:59 34.92408 -118.87138 37840 ft 408 kts 323°
2026-04-24 02:59 34.94875 -118.88835 38064 ft 415 kts 322°
2026-04-24 02:59 34.97430 -118.90604 38044 ft 425 kts 322°
2026-04-24 03:00 35.00008 -118.92393 38046 ft 436 kts 323°
2026-04-24 03:00 35.02650 -118.94220 38031 ft 442 kts 323°
2026-04-24 03:00 35.07992 -118.97910 38038 ft 434 kts 323°
2026-04-24 03:01 35.13181 -119.01495 38037 ft 430 kts 323°
2026-04-24 03:01 35.18432 -119.05141 38023 ft 436 kts 323°
2026-04-24 03:02 35.23691 -119.08796 38013 ft 434 kts 323°
2026-04-24 03:02 35.28915 -119.12420 38011 ft 435 kts 323°
2026-04-24 03:03 35.34203 -119.16106 38010 ft 436 kts 323°
2026-04-24 03:03 35.39441 -119.19752 38010 ft 435 kts 323°
2026-04-24 03:04 35.45013 -119.22884 38002 ft 447 kts 336°
2026-04-24 03:04 35.48082 -119.23686 38011 ft 458 kts 345°
2026-04-24 03:04 35.51271 -119.24075 38021 ft 462 kts 347°
2026-04-24 03:05 35.57666 -119.24718 37999 ft 463 kts 347°
2026-04-24 03:05 35.64044 -119.25369 38012 ft 461 kts 347°
2026-04-24 03:06 35.70463 -119.26021 38007 ft 461 kts 348°
2026-04-24 03:06 35.76861 -119.26660 38004 ft 460 kts 348°
2026-04-24 03:07 35.83207 -119.27289 38007 ft 461 kts 348°
2026-04-24 03:07 35.89613 -119.27928 37997 ft 463 kts 348°
2026-04-24 03:08 35.99281 -119.28886 37995 ft 463 kts 348°
2026-04-24 03:09 36.05672 -119.29515 37999 ft 461 kts 348°
2026-04-24 03:09 36.12014 -119.30142 37996 ft 459 kts 348°
2026-04-24 03:10 36.18378 -119.30778 38001 ft 459 kts 348°
2026-04-24 03:10 36.24747 -119.31410 38011 ft 459 kts 348°
2026-04-24 03:11 36.31128 -119.32048 38013 ft 460 kts 348°
2026-04-24 03:11 36.37503 -119.32681 38020 ft 460 kts 348°
2026-04-24 03:12 36.43896 -119.33321 38016 ft 460 kts 348°
2026-04-24 03:12 36.50245 -119.33956 38021 ft 458 kts 348°
2026-04-24 03:13 36.56615 -119.34594 38023 ft 459 kts 348°
2026-04-24 03:13 36.62938 -119.35233 38024 ft 459 kts 348°
2026-04-24 03:14 36.69308 -119.35870 38044 ft 457 kts 348°
2026-04-24 03:14 36.75652 -119.36514 38045 ft 458 kts 348°
2026-04-24 03:15 36.82002 -119.37155 38056 ft 459 kts 348°
2026-04-24 03:15 36.88325 -119.37799 38062 ft 459 kts 348°
2026-04-24 03:16 36.94716 -119.38452 38071 ft 459 kts 348°
2026-04-24 03:16 37.01025 -119.39088 38088 ft 456 kts 348°
2026-04-24 03:17 37.07332 -119.39728 38095 ft 455 kts 348°
2026-04-24 03:17 37.13657 -119.40374 38107 ft 457 kts 348°
2026-04-24 03:18 37.20008 -119.41021 38103 ft 457 kts 348°
2026-04-24 03:18 37.26287 -119.41666 38106 ft 454 kts 348°
2026-04-24 03:19 37.32628 -119.42312 38116 ft 456 kts 348°
2026-04-24 03:19 37.38948 -119.42962 38108 ft 457 kts 348°
2026-04-24 03:20 37.45260 -119.43612 38105 ft 455 kts 348°
2026-04-24 03:20 37.51530 -119.44257 37852 ft 451 kts 348°
2026-04-24 03:20 37.54678 -119.44576 37551 ft 446 kts 348°
2026-04-24 03:21 37.57729 -119.44885 37247 ft 440 kts 348°
2026-04-24 03:21 37.60748 -119.45197 36944 ft 435 kts 348°
2026-04-24 03:21 37.63761 -119.45505 36641 ft 429 kts 348°
2026-04-24 03:21 37.66687 -119.45810 36357 ft 427 kts 348°
2026-04-24 03:22 37.69680 -119.46124 36122 ft 430 kts 348°
2026-04-24 03:22 37.72642 -119.46431 35895 ft 432 kts 348°
2026-04-24 03:22 37.75626 -119.46739 35665 ft 430 kts 348°
2026-04-24 03:22 37.78620 -119.47047 35433 ft 427 kts 348°
2026-04-24 03:23 37.81541 -119.47347 35206 ft 423 kts 348°
2026-04-24 03:23 37.84484 -119.47649 34975 ft 421 kts 348°
2026-04-24 03:23 37.87387 -119.47955 34747 ft 418 kts 348°
2026-04-24 03:23 37.90289 -119.48261 34517 ft 416 kts 348°
2026-04-24 03:24 37.93173 -119.48560 34259 ft 415 kts 348°
2026-04-24 03:24 37.96011 -119.48856 33985 ft 413 kts 348°
2026-04-24 03:24 37.98876 -119.49156 33707 ft 411 kts 348°
2026-04-24 03:24 38.01688 -119.49454 33431 ft 407 kts 348°
2026-04-24 03:25 38.04512 -119.49749 33156 ft 404 kts 348°
2026-04-24 03:25 38.07308 -119.50044 32878 ft 401 kts 348°
2026-04-24 03:25 38.10066 -119.50337 32607 ft 399 kts 348°
2026-04-24 03:25 38.12854 -119.50633 32331 ft 398 kts 348°
2026-04-24 03:26 38.15601 -119.50919 32058 ft 396 kts 348°
2026-04-24 03:26 38.18327 -119.51205 31781 ft 392 kts 348°
2026-04-24 03:26 38.21007 -119.51483 31511 ft 387 kts 348°
2026-04-24 03:26 38.23674 -119.51764 31239 ft 383 kts 348°
2026-04-24 03:27 38.26333 -119.52046 30967 ft 382 kts 348°
2026-04-24 03:27 38.28964 -119.52323 30698 ft 381 kts 348°
2026-04-24 03:27 38.31618 -119.52605 30425 ft 379 kts 348°
2026-04-24 03:27 38.34219 -119.52881 30160 ft 378 kts 348°
2026-04-24 03:28 38.36841 -119.53157 29900 ft 375 kts 349°
2026-04-24 03:28 38.39429 -119.53427 29643 ft 373 kts 349°
2026-04-24 03:28 38.42004 -119.53705 29387 ft 373 kts 349°
2026-04-24 03:28 38.44590 -119.53985 29137 ft 374 kts 349°
2026-04-24 03:29 38.47178 -119.54260 28886 ft 374 kts 349°
2026-04-24 03:29 38.49779 -119.54537 28624 ft 373 kts 349°
2026-04-24 03:29 38.52352 -119.54812 28372 ft 370 kts 349°
2026-04-24 03:29 38.54921 -119.55084 28121 ft 367 kts 349°
2026-04-24 03:30 38.57439 -119.55347 27874 ft 366 kts 350°
2026-04-24 03:30 38.59977 -119.55613 27623 ft 367 kts 350°
2026-04-24 03:30 38.62537 -119.55887 27369 ft 366 kts 350°
2026-04-24 03:30 38.65073 -119.56161 27115 ft 365 kts 350°
2026-04-24 03:31 38.67567 -119.56428 26866 ft 363 kts 350°
2026-04-24 03:31 38.70086 -119.56698 26618 ft 362 kts 351°
2026-04-24 03:31 38.72620 -119.56969 26368 ft 362 kts 351°
2026-04-24 03:31 38.75105 -119.57233 26115 ft 362 kts 351°
2026-04-24 03:32 38.77605 -119.57499 25865 ft 361 kts 351°
2026-04-24 03:32 38.80115 -119.57766 25622 ft 360 kts 352°
2026-04-24 03:32 38.82601 -119.58033 25364 ft 357 kts 351°
2026-04-24 03:32 38.85061 -119.58294 25115 ft 356 kts 352°
2026-04-24 03:33 38.87540 -119.58557 24858 ft 355 kts 352°
2026-04-24 03:33 38.89986 -119.58823 24605 ft 354 kts 352°
2026-04-24 03:33 38.92432 -119.59085 24351 ft 354 kts 352°
2026-04-24 03:33 38.94875 -119.59351 24103 ft 353 kts 352°
2026-04-24 03:34 38.97331 -119.59615 23841 ft 352 kts 353°
2026-04-24 03:34 38.99767 -119.59874 23580 ft 351 kts 353°
2026-04-24 03:34 39.02208 -119.60133 23298 ft 347 kts 353°
2026-04-24 03:34 39.04592 -119.60384 23012 ft 344 kts 353°
2026-04-24 03:35 39.06966 -119.60632 22681 ft 343 kts 353°
2026-04-24 03:35 39.09353 -119.60886 22212 ft 345 kts 353°
2026-04-24 03:35 39.11736 -119.61144 21744 ft 348 kts 354°
2026-04-24 03:35 39.14159 -119.61410 21270 ft 350 kts 354°
2026-04-24 03:36 39.16596 -119.61672 20797 ft 352 kts 354°
2026-04-24 03:36 39.19035 -119.61932 20324 ft 354 kts 354°
2026-04-24 03:36 39.21494 -119.62194 19850 ft 356 kts 354°
2026-04-24 03:36 39.23978 -119.62463 19380 ft 357 kts 354°
2026-04-24 03:37 39.26450 -119.62732 18906 ft 359 kts 354°
2026-04-24 03:37 39.28940 -119.63001 18432 ft 361 kts 354°
2026-04-24 03:37 39.30618 -119.63182 18116 ft 362 kts 355°
2026-04-24 03:38 39.37049 -119.63876 16927 ft 365 kts 355°
2026-04-24 03:38 39.39577 -119.64150 16450 ft 367 kts 355°
2026-04-24 03:38 39.42125 -119.64429 15940 ft 369 kts 355°
2026-04-24 03:38 39.44676 -119.64708 15460 ft 370 kts 355°
2026-04-24 03:39 39.47245 -119.64990 14993 ft 371 kts 355°
2026-04-24 03:39 39.49823 -119.65273 14518 ft 371 kts 355°
2026-04-24 03:39 39.52391 -119.65373 14028 ft 372 kts
2026-04-24 03:39 39.54956 -119.65118 13568 ft 371 kts
2026-04-24 03:40 39.57483 -119.64681 12998 ft 359 kts
2026-04-24 03:40 39.59882 -119.64208 12696 ft 342 kts
2026-04-24 03:40 39.62188 -119.63748 12270 ft 331 kts
2026-04-24 03:40 39.64442 -119.63295 11859 ft 321 kts
2026-04-24 03:41 39.66615 -119.62856 11454 ft 312 kts
2026-04-24 03:41 39.68716 -119.62430 11073 ft 303 kts
2026-04-24 03:41 39.70770 -119.62274 10717 ft 294 kts 356°
2026-04-24 03:41 39.72773 -119.62542 10558 ft 278 kts 353°
2026-04-24 03:42 39.74609 -119.62845 10486 ft 255 kts 353°
2026-04-24 03:42 39.76301 -119.63107 10383 ft 235 kts 353°
2026-04-24 03:42 39.77844 -119.63335 10356 ft 214 kts 353°
2026-04-24 03:42 39.79275 -119.63545 10321 ft 196 kts 353°
2026-04-24 03:43 39.80549 -119.63877 10285 ft 185 kts 334°
2026-04-24 03:43 39.81459 -119.65052 10171 ft 193 kts 291°
2026-04-24 03:43 39.81576 -119.66778 9977 ft 194 kts 265°
2026-04-24 03:43 39.81492 -119.68516 9764 ft 190 kts 272°
2026-04-24 03:44 39.81522 -119.70206 9577 ft 188 kts 274°
2026-04-24 03:44 39.81556 -119.71922 9391 ft 190 kts 273°
2026-04-24 03:44 39.81569 -119.73653 9189 ft 190 kts 272°
2026-04-24 03:44 39.81406 -119.75347 8976 ft 192 kts 246°
2026-04-24 03:45 39.80478 -119.76525 8825 ft 194 kts 198°
2026-04-24 03:45 39.79142 -119.76582 8646 ft 196 kts 170°
2026-04-24 03:45 39.77764 -119.76440 8368 ft 195 kts 181°
2026-04-24 03:45 39.76437 -119.76521 8153 ft 189 kts 183°
2026-04-24 03:46 39.75109 -119.76586 8006 ft 191 kts 181°
2026-04-24 03:46 39.73798 -119.76611 7956 ft 191 kts 180°
2026-04-24 03:46 39.72453 -119.76619 7905 ft 193 kts 180°
2026-04-24 03:46 39.71109 -119.76623 7836 ft 190 kts 180°
2026-04-24 03:47 39.69794 -119.76627 7833 ft 189 kts 180°
2026-04-24 03:47 39.68466 -119.76630 7645 ft 197 kts 180°
2026-04-24 03:47 39.67084 -119.76635 7340 ft 198 kts 180°
2026-04-24 03:47 39.65725 -119.76640 7120 ft 194 kts 180°
2026-04-24 03:48 39.64413 -119.76642 6944 ft 178 kts 179°
2026-04-24 03:48 39.63194 -119.76643 6863 ft 178 kts 180°
2026-04-24 03:48 39.61928 -119.76645 6503 ft 179 kts 180°
2026-04-24 03:48 39.60749 -119.76649 6286 ft 163 kts 180°
2026-04-24 03:49 39.59616 -119.76653 6182 ft 163 kts 180°
2026-04-24 03:49 39.58448 -119.76667 6009 ft 171 kts 180°
2026-04-24 03:49 39.57264 -119.76678 5694 ft 169 kts 179°
2026-04-24 03:49 39.56080 -119.76673 5427 ft 170 kts 180°
2026-04-24 03:50 39.54897 -119.76669 5176 ft 170 kts 179°
2026-04-24 03:50 39.53702 -119.76679 4938 ft 172 kts 179°
2026-04-24 03:50 39.52486 -119.76666 4700 ft 177 kts 179°
2026-04-24 03:50 39.51250 -119.76674 4443 ft 173 kts 179°
2026-04-24 03:51 39.50142 -119.76672 4412 ft 142 kts 180°
2026-04-24 03:51 39.49524 -119.76678 4411 ft 40 kts 182°
2026-04-24 03:51 39.49298 -119.76681 4411 ft 33 kts 179°
2026-04-24 03:51 39.49041 -119.76681 4411 ft 37 kts 180°
2026-04-24 03:52 39.48924 -119.76739 4414 ft 10 kts 264°
2026-04-24 03:52 39.48926 -119.76814 4415 ft 3 kts 271°
2026-04-24 03:52 39.48926 -119.76816 4415 ft 0 kts 271°
2026-04-24 03:52 39.48926 -119.76831 4415 ft 6 kts 271°
2026-04-24 03:53 39.48928 -119.76943 4415 ft 18 kts 272°
2026-04-24 03:53 39.48930 -119.77063 4415 ft 7 kts 267°
2026-04-24 03:53 39.48936 -119.77130 4415 ft 9 kts 309°
2026-04-24 03:53 39.49018 -119.77160 4415 ft 11 kts 357°
2026-04-24 03:54 39.49091 -119.77155 4415 ft 10 kts
2026-04-24 03:54 39.49194 -119.77152 4415 ft 19 kts
2026-04-24 03:54 39.49338 -119.77154 4414 ft 18 kts 359°
2026-04-24 03:54 39.49455 -119.77155 4414 ft 15 kts 359°
2026-04-24 03:55 39.49564 -119.77154 4414 ft 19 kts
2026-04-24 03:55 39.49722 -119.77150 4414 ft 23 kts 359°
2026-04-24 03:55 39.49871 -119.77154 4414 ft 19 kts 359°
2026-04-24 03:55 39.50003 -119.77154 4414 ft 21 kts 359°
2026-04-24 03:56 39.50177 -119.77151 4414 ft 27 kts
2026-04-24 03:56 39.50344 -119.77152 4415 ft 21 kts 358°
2026-04-24 03:56 39.50457 -119.77158 4415 ft 10 kts 358°
2026-04-24 03:56 39.50519 -119.77171 4415 ft 7 kts 321°
2026-04-24 03:57 39.50523 -119.77218 4416 ft 3 kts 248°
2026-04-24 03:57 39.50517 -119.77235 4416 ft 0 kts 245°